Flag for Canada Weather past 2 weeks in Kamloops, British Columbia, Canada

Now
50 °F

Scattered clouds.


Feels Like: 49 °F
Forecast: 34 / 62 °F
Wind: 3 mph from Southeast

Location: Kamloops

Current Time: Apr 25, 2015 at 8:52:13 PM

Latest Report: Apr 25, 2015 at 8:00 PM


Visibility: 40 mi

Pressure: 29.96 "Hg

Humidity: 54%

Dew point: 34 °F

Location of KamloopsLocation

Historic Weather in Kamloops — Graph

°F

Kamloops temperature yesterday

Maximum temperature yesterday: 54 °F (at 12:00 PM)
Minimum temperature yesterday: 37 °F (at 5:00 AM)
Average temperature yesterday: 45 °F

Past Weeks' High & Low Weather Summary

 TemperatureHumidityPressure
High77 °F (Apr 20, 5:00 PM)93% (Apr 24, 12:00 AM)30.46 "Hg (Apr 24, 12:00 AM)
Low30 °F (Apr 15, 6:00 AM)14% (Apr 14, 2:00 PM)29.54 "Hg (Apr 11, 2:00 AM)
Average50 °F48%29.99 "Hg
* Reported Apr 10 7:00 PM — Apr 25 7:00 PM, Kamloops, Weather by CustomWeather, © 2015

Note: Actual official high and low records may vary slightly from our data, if they occured in-between our weather recording intervals... More about our weather records

Advertising

Kamloops weather history for previous 24 hours

 ConditionsComfort  
Time TempWeatherWind HumidityBarometerVisibility
7:00 PM
Sat, Apr 25
52 °FBroken clouds.9 mph50%29.95 "Hg40 mi
6:00 PM54 °FBroken clouds.12 mph44%29.94 "Hg40 mi
5:00 PM55 °FBroken clouds.5 mph41%29.92 "Hg40 mi
4:00 PM55 °FPartly sunny.No wind38%29.91 "Hg40 mi
3:00 PM55 °FPartly sunny.3 mph41%29.91 "Hg40 mi
2:00 PM52 °FPartly sunny.2 mph47%29.92 "Hg40 mi
1:00 PM48 °FBroken clouds.No wind62%29.94 "Hg40 mi
12:00 PM45 °FScattered showers. More clouds than sun.7 mph76%29.96 "Hg40 mi
11:00 AM43 °FSprinkles. Broken clouds.3 mph76%29.96 "Hg40 mi
10:00 AM41 °FSprinkles. Partly sunny.2 mph70%29.95 "Hg40 mi
9:00 AM39 °FPartly sunny.8 mph81%29.95 "Hg40 mi
8:00 AM37 °FPartly sunny.7 mph87%29.94 "Hg40 mi
7:00 AM36 °FPartly sunny.5 mph87%29.93 "Hg40 mi
6:00 AM34 °FPassing clouds.6 mph87%29.91 "Hg40 mi
5:00 AM34 °FPassing clouds.2 mph87%29.91 "Hg40 mi
4:00 AM34 °FPassing clouds.No wind81%29.90 "Hg40 mi
3:00 AM36 °FPassing clouds.2 mph81%29.88 "Hg40 mi
2:00 AM36 °FPassing clouds.No wind87%29.87 "Hg40 mi
1:00 AM39 °FPassing clouds.5 mph81%29.85 "Hg40 mi
12:00 AM39 °FClear.3 mph81%29.84 "Hg40 mi
11:00 PM
Fri, Apr 24
41 °FClear.6 mph76%29.83 "Hg40 mi
10:00 PM43 °FPassing clouds.9 mph71%29.82 "Hg40 mi
9:00 PM43 °FPassing clouds.7 mph76%29.81 "Hg40 mi
8:00 PM46 °FScattered clouds.No wind66%29.78 "Hg40 mi
Weather by CustomWeather, © 2015

See weather overviewHow to use our weather pages